EW7114 Weather Reports


time (UTC)temp
F
wind
direction
speed
knots
gust
knots
rain 1hr
in
rain 24hr
in
rain mn
in
humidity
%
barometer
mb
20260504225600 66 359 0.0 4.3 0.00 0.00 0.00 40 1000.0
20260504225059 65 28 0.0 3.5 0.00 0.00 0.00 41 1000.2
20260504224600 65 355 0.9 7.8 0.00 0.00 0.00 40 1000.2
20260504224058 64 28 2.6 7.8 0.00 0.00 0.00 42 1000.3
20260504223601 64 43 2.6 8.7 0.00 0.00 0.00 42 1000.5
20260504223101 63 95 5.2 12.2 0.00 0.00 0.00 43 1000.6
20260504222559 63 100 7.8 13.9 0.00 0.00 0.00 43 1000.6
20260504222058 64 109 8.7 12.2 0.00 0.00 0.00 42 1000.6
20260504221558 64 93 7.8 12.2 0.00 0.00 0.00 42 1000.6
20260504221057 65 84 7.8 12.2 0.00 0.00 0.00 43 1000.7
20260504220557 65 107 7.0 10.4 0.00 0.00 0.00 42 1000.8
20260504220056 64 155 1.7 7.0 0.00 0.00 0.00 43 1000.9
20260504215601 63 128 1.7 7.0 0.00 0.00 0.00 43 1001.0
20260504215056 63 124 3.5 8.7 0.00 0.00 0.00 44 1001.1
20260504214657 63 136 3.5 8.7 0.00 0.00 0.00 45 1001.2
20260504214055 63 130 5.2 7.8 0.00 0.00 0.00 46 1001.3
20260504213556 63 84 1.7 5.2 0.00 0.00 0.00 44 1001.3
20260504213057 63 9 1.7 5.2 0.00 0.00 0.00 42 1001.4
20260504212556 63 59 2.6 7.0 0.00 0.00 0.00 44 1001.7
20260504212058 63 59 2.6 10.4 0.00 0.00 0.00 44 1001.7
20260504211556 63 24 4.3 14.8 0.00 0.00 0.00 45 1001.8
20260504211055 63 57 7.8 14.8 0.00 0.00 0.00 45 1001.7
20260504210554 63 41 9.6 19.1 0.00 0.00 0.00 45 1001.6
20260504205556 65 51 10.4 17.4 0.00 0.00 0.00 42 1001.4
20260504205058 64 53 11.3 20.9 0.00 0.00 0.00 44 1001.1
20260504204610 65 63 14.8 20.9 0.00 0.00 0.00 41 1000.9
20260504204055 65 49 7.0 15.6 0.00 0.00 0.00 40 1000.9
20260504203554 66 14 8.7 15.6 0.00 0.00 0.00 40 1000.8
20260504203124 66 19 10.4 17.4 0.00 0.00 0.00 40 1000.9
20260504202554 66 359 11.3 17.4 0.00 0.00 0.00 40 1000.8
20260504202054 66 332 11.3 19.1 0.00 0.00 0.00 39 1000.7
20260504201553 66 345 12.2 19.1 0.00 0.00 0.00 39 1000.7
20260504201053 67 329 10.4 13.9 0.00 0.00 0.00 38 1000.7
20260504200552 67 318 7.0 15.6 0.00 0.00 0.00 38 1000.7
20260504200052 66 339 9.6 15.6 0.00 0.00 0.00 37 1000.7
20260504195552 67 313 1.7 12.2 0.00 0.00 0.00 36 1000.6
20260504195052 66 201 3.5 12.2 0.00 0.00 0.00 38 1000.4
20260504194552 67 190 2.6 8.7 0.00 0.00 0.00 38 1000.4
20260504194052 67 195 4.3 8.7 0.00 0.00 0.00 38 1000.4
20260504193552 67 228 6.1 8.7 0.00 0.00 0.00 38 1000.5
20260504193052 67 175 4.3 8.7 0.00 0.00 0.00 38 1000.4
20260504192551 68 220 4.3 10.4 0.00 0.00 0.00 38 1000.4
20260504192051 68 244 4.3 9.6 0.00 0.00 0.00 36 1000.4
20260504191554 68 253 4.3 10.4 0.00 0.00 0.00 35 1000.4
20260504191051 68 252 6.1 13.9 0.00 0.00 0.00 36 1000.3
20260504190550 68 249 8.7 13.9 0.00 0.00 0.00 35 1000.3
20260504190053 68 227 6.1 13.9 0.00 0.00 0.00 35 1000.3
20260504185550 68 258 7.8 13.9 0.00 0.00 0.00 36 1000.4
20260504185049 68 265 8.7 17.4 0.00 0.00 0.00 34 1000.4
20260504184549 69 246 11.3 17.4 0.00 0.00 0.00 34 1000.2
20260504184048 70 311 0.0 5.2 0.00 0.00 0.00 32 1000.3
20260504183548 70 251 0.9 7.0 0.00 0.00 0.00 32 1000.5
20260504183046 71 253 2.6 10.4 0.00 0.00 0.00 32 1000.7
20260504182546 71 209 3.5 10.4 0.00 0.00 0.00 32 1000.7
20260504182046 72 207 5.2 8.7 0.00 0.00 0.00 33 1000.7
20260504181544 71 235 2.6 7.8 0.00 0.00 0.00 33 1000.8
20260504181043 71 233 2.6 12.2 0.00 0.00 0.00 32 1000.8
20260504180541 71 134 7.0 12.2 0.00 0.00 0.00 33 1001.1
20260504180041 70 157 1.7 7.8 0.00 0.00 0.00 33 1001.1
20260504175540 70 88 3.5 9.6 0.00 0.00 0.00 33 1001.1
20260504175040 70 262 1.7 8.7 0.00 0.00 0.00 33 1001.1
20260504174540 70 197 4.3 8.7 0.00 0.00 0.00 33 1001.3
20260504174039 70 107 7.0 10.4 0.00 0.00 0.00 34 1001.3
20260504173537 70 43 3.5 10.4 0.00 0.00 0.00 34 1001.5
20260504173040 69 151 6.1 11.3 0.00 0.00 0.00 35 1001.5
20260504172536 69 125 2.6 11.3 0.00 0.00 0.00 34 1001.6
20260504172036 69 90 3.5 10.4 0.00 0.00 0.00 35 1001.6
20260504171537 69 55 3.5 11.3 0.00 0.00 0.00 35 1001.6
20260504171034 69 165 3.5 10.4 0.00 0.00 0.00 34 1001.8
20260504170532 69 140 5.2 10.4 0.00 0.00 0.00 36 1001.7
20260504151005 59 179 6.1 8.7 0.00 0.00 0.00 49 1003.0
20260504150505 59 177 6.1 9.6 0.00 0.00 0.00 49 1003.1
20260504141049 52 180 4.3 6.1 0.00 0.00 0.00 49 1003.8
20260504140549 52 175 3.5 5.2 0.00 0.00 0.00 47 1003.8
20260504130543 49 201 1.7 3.5 0.00 0.00 0.00 46 1003.8
20260504110534 51 165 1.7 4.3 0.00 0.00 0.00 53 1004.3
20260504100526 49 204 2.6 5.2 0.00 0.00 0.00 53 1004.4
20260504081613 42 248 0.9 5.2 0.00 0.00 0.00 54 1004.5
20260504081012 43 248 3.5 5.2 0.00 0.00 0.00 54 1004.5
20260504080512 43 249 1.7 5.2 0.00 0.00 0.00 54 1004.7
20260504050535 45 213 1.7 3.5 0.00 0.00 0.00 53 1004.3
20260504045531 45 176 2.6 3.5 0.00 0.00 0.00 53 1004.3
20260504045030 46 318 0.0 0.9 0.00 0.00 0.00 53 1004.3
20260504044529 46 318 0.0 1.7 0.00 0.00 0.00 54 1004.3
20260504044027 46 318 0.0 2.6 0.00 0.00 0.00 54 1004.3
20260504043527 47 318 0.0 2.6 0.00 0.00 0.00 54 1004.3
20260504043024 48 318 0.0 2.6 0.00 0.00 0.00 54 1004.2
20260504042523 47 318 0.9 2.6 0.00 0.00 0.00 54 1004.2
20260504042021 47 318 0.0 1.7 0.00 0.00 0.00 54 1004.3
20260504041535 47 318 0.0 1.7 0.00 0.00 0.00 54 1004.3
20260504041019 46 318 0.0 2.6 0.00 0.00 0.00 52 1004.3
20260504040517 46 318 0.0 2.6 0.00 0.00 0.00 51 1004.4
20260504040020 46 70 1.7 2.6 0.00 0.00 0.00 50 1004.3
20260504035514 47 160 0.0 1.7 0.00 0.00 0.00 50 1004.2
20260504035013 47 160 0.9 3.5 0.00 0.00 0.00 49 1004.2
20260504034511 49 160 1.7 4.3 0.00 0.00 0.00 48 1004.2
20260504034009 51 163 1.7 4.3 0.00 0.00 0.00 46 1004.2
20260504033508 54 118 1.7 3.5 0.00 0.00 0.00 41 1004.2
20260504033006 57 91 0.9 3.5 0.00 0.00 0.00 41 1004.2
20260504032505 57 305 1.7 3.5 0.00 0.00 0.00 37 1004.1
20260504032003 56 305 0.9 1.7 0.00 0.00 0.00 42 1004.1
20260504031503 56 51 0.0 1.7 0.00 0.00 0.00 41 1004.1
20260504031004 56 51 0.0 0.9 0.00 0.00 0.00 42 1004.0
20260504030501 56 51 0.0 1.7 0.00 0.00 0.00 40 1003.9
20260504030100 56 51 0.0 2.6 0.00 0.00 0.00 39 1004.0
20260504025559 57 51 0.9 2.6 0.00 0.00 0.00 40 1004.0
20260504025058 57 51 0.9 2.6 0.00 0.00 0.00 39 1003.9
20260504024556 57 301 0.0 2.6 0.00 0.00 0.00 38 1003.8
20260504024056 58 293 0.9 3.5 0.00 0.00 0.00 39 1003.8
20260504023553 58 305 1.7 3.5 0.00 0.00 0.00 37 1003.8
20260504023051 59 305 1.7 3.5 0.00 0.00 0.00 37 1003.8
20260504022550 60 323 2.6 4.3 0.00 0.00 0.00 35 1003.7
20260504022049 60 302 1.7 4.3 0.00 0.00 0.00 37 1003.7
20260504021552 60 313 1.7 5.2 0.00 0.00 0.00 36 1003.7
20260504021049 61 309 2.6 4.3 0.00 0.00 0.00 36 1003.7
20260504020547 61 311 2.6 4.3 0.00 0.00 0.00 36 1003.8
20260504020044 62 314 1.7 4.3 0.00 0.00 0.00 36 1003.7
20260504015541 63 332 0.9 3.5 0.00 0.00 0.00 35 1003.7
20260504015040 64 345 2.6 3.5 0.00 0.00 0.00 33 1003.8
20260504014540 64 336 0.9 3.5 0.00 0.00 0.00 31 1003.7
20260504014037 64 350 0.9 3.5 0.00 0.00 0.00 33 1003.7
20260504013535 65 350 0.9 2.6 0.00 0.00 0.00 32 1003.7
20260504013044 65 359 0.0 2.6 0.00 0.00 0.00 32 1003.8
20260504012532 66 359 0.0 2.6 0.00 0.00 0.00 32 1003.9
20260504012032 66 10 0.9 4.3 0.00 0.00 0.00 31 1003.9
20260504011530 67 8 1.7 5.2 0.00 0.00 0.00 30 1003.9
20260504011028 67 28 2.6 9.6 0.00 0.00 0.00 29 1004.0
20260504010527 68 3 4.3 9.6 0.00 0.00 0.00 27 1004.0
20260504010026 68 345 3.5 8.7 0.00 0.00 0.00 27 1004.0
20260504005526 69 350 4.3 8.7 0.00 0.00 0.00 25 1004.1
20260504005023 69 312 4.3 8.7 0.00 0.00 0.00 26 1004.1
20260504004522 69 345 5.2 9.6 0.00 0.00 0.00 26 1004.1
20260504004022 69 321 6.1 10.4 0.00 0.00 0.00 27 1004.2
20260504003520 69 323 4.3 10.4 0.00 0.00 0.00 27 1004.2
20260504003018 69 8 5.2 9.6 0.00 0.00 0.00 26 1004.2
20260504002517 69 9 5.2 9.6 0.00 0.00 0.00 27 1004.2
20260504002017 70 21 6.1 13.0 0.00 0.00 0.00 25 1004.3
20260504001524 70 317 6.1 13.0 0.00 0.00 0.00 25 1004.3
20260504001015 70 350 4.3 14.8 0.00 0.00 0.00 25 1004.4
20260504000515 71 321 5.2 14.8 0.00 0.00 0.00 24 1004.3
20260504000012 71 5 6.1 11.3 0.00 0.00 0.00 25 1004.3
20260503235510 71 350 5.2 8.7 0.00 0.00 0.00 24 1004.4
20260503235009 71 15 5.2 8.7 0.00 0.00 0.00 25 1004.3
20260503234508 70 355 4.3 8.7 0.00 0.00 0.00 25 1004.4
20260503234007 71 21 4.3 8.7 0.00 0.00 0.00 25 1004.4
20260503233506 71 350 4.3 7.8 0.00 0.00 0.00 24 1004.5
20260503233007 71 350 4.3 7.0 0.00 0.00 0.00 24 1004.5
20260503232502 71 345 3.5 7.0 0.00 0.00 0.00 24 1004.7
20260503232101 71 355 3.5 7.8 0.00 0.00 0.00 24 1004.8
20260503231600 71 19 3.5 7.8 0.00 0.00 0.00 24 1004.7
20260503231100 71 15 3.5 7.8 0.00 0.00 0.00 23 1004.8
20260503230559 71 4 4.3 8.7 0.00 0.00 0.00 24 1004.7
20260503230101 71 350 5.2 10.4 0.00 0.00 0.00 23 1004.7